Location: Staunton
(38.1490°N, 79.0720°W)
Time: 13:51:43
(UTC-05:00)

ISS - Pass Details

Date: 14 December 2017
Orbit: 402 x 407 km, 51.6° (Epoch: 11 December)

Event Time Altitude Azimuth Distance (km) Brightness Sun altitude
Rises 18:58:32 0° 304° (WNW) 2,325 0.7 -23.1°
Reaches altitude 10° 19:00:40 10° 297° (WNW) 1,461 -0.4 -23.5°
Enters shadow 19:03:13 38° 255° (WSW) 627 -2.4 -24.0°
